Wetterdaten: Dienstag, 19.05.2015
Datum Zeit Auen-Temp. Temp gefhlt Luftfeuchte Luftdruck Regen Wind Richtung Richtung Taupunkt Windben
19.05.2015 00:00 12,9 C 12,6 C 79 % 1008,9 hPa 0,0 mm 0,0 km/h (0 Bft) O-NO 67 9,3 C 0,0 km/h (0 Bft)
19.05.2015 00:05 12,9 C 12,7 C 79 % 1008,9 hPa 0,0 mm 0,0 km/h (0 Bft) O 90 9,3 C 0,0 km/h (0 Bft)
19.05.2015 00:10 13,0 C 12,8 C 79 % 1008,9 hPa 0,0 mm 0,0 km/h (0 Bft) S 180 9,4 C 0,0 km/h (0 Bft)
19.05.2015 00:15 13,0 C 12,8 C 79 % 1008,8 hPa 0,0 mm 0,0 km/h (0 Bft) SW 225 9,4 C 0,0 km/h (0 Bft)
19.05.2015 00:20 12,8 C 12,6 C 79 % 1008,8 hPa 0,0 mm 0,0 km/h (0 Bft) W-SW 247 9,2 C 0,0 km/h (0 Bft)
19.05.2015 00:25 13,2 C 12,9 C 79 % 1008,8 hPa 0,0 mm 0,5 km/h (0 Bft) S 180 9,6 C 0,0 km/h (0 Bft)
19.05.2015 00:30 13,6 C 13,4 C 79 % 1008,8 hPa 0,0 mm 1,6 km/h (1 Bft) NW 315 10,0 C 2,6 km/h (1 Bft)
19.05.2015 00:35 13,7 C 13,6 C 79 % 1008,7 hPa 0,0 mm 0,8 km/h (0 Bft) S-SO 157 10,1 C 0,0 km/h (0 Bft)
19.05.2015 00:40 13,8 C 13,7 C 79 % 1008,7 hPa 0,0 mm 0,3 km/h (0 Bft) S 180 10,2 C 0,0 km/h (0 Bft)
19.05.2015 00:45 13,9 C 13,8 C 79 % 1008,7 hPa 0,0 mm 0,3 km/h (0 Bft) SO 135 10,3 C 0,0 km/h (0 Bft)
19.05.2015 00:50 13,9 C 13,8 C 78 % 1008,7 hPa 0,0 mm 0,0 km/h (0 Bft) NW 315 10,1 C 0,0 km/h (0 Bft)
19.05.2015 00:55 13,9 C 13,9 C 78 % 1008,6 hPa 0,0 mm 0,3 km/h (0 Bft) SW 225 10,1 C 5,4 km/h (1 Bft)
19.05.2015 01:00 14,1 C 14,0 C 78 % 1008,6 hPa 0,0 mm 0,8 km/h (0 Bft) W-NW 292 10,3 C 0,0 km/h (0 Bft)
19.05.2015 01:05 14,1 C 14,0 C 78 % 1008,6 hPa 0,0 mm 0,8 km/h (0 Bft) N-NO 22 10,3 C 8,3 km/h (2 Bft)
19.05.2015 01:10 14,0 C 14,0 C 77 % 1008,6 hPa 0,0 mm 0,0 km/h (0 Bft) W-SW 247 10,0 C 3,9 km/h (1 Bft)
19.05.2015 01:15 14,1 C 14,1 C 77 % 1008,6 hPa 0,0 mm 0,3 km/h (0 Bft) S-SO 157 10,1 C 0,0 km/h (0 Bft)
19.05.2015 01:20 14,1 C 14,1 C 77 % 1008,6 hPa 0,0 mm 1,0 km/h (0 Bft) S 180 10,1 C 3,4 km/h (1 Bft)
19.05.2015 01:25 14,0 C 14,0 C 77 % 1008,6 hPa 0,0 mm 0,8 km/h (0 Bft) S 180 10,0 C 0,0 km/h (0 Bft)
19.05.2015 01:30 14,0 C 14,0 C 76 % 1008,6 hPa 0,0 mm 1,3 km/h (1 Bft) SW 225 9,8 C 6,7 km/h (2 Bft)
19.05.2015 01:35 13,9 C 13,9 C 77 % 1008,6 hPa 0,0 mm 1,3 km/h (1 Bft) N 360 9,9 C 6,5 km/h (2 Bft)
19.05.2015 01:40 13,9 C 13,9 C 77 % 1008,6 hPa 0,0 mm 4,1 km/h (1 Bft) S 180 9,9 C 2,6 km/h (1 Bft)
19.05.2015 01:45 14,1 C 14,1 C 75 % 1008,6 hPa 0,0 mm 5,7 km/h (1 Bft) S 180 9,7 C 15,5 km/h (3 Bft)
19.05.2015 01:50 14,2 C 14,2 C 75 % 1008,6 hPa 0,0 mm 4,7 km/h (1 Bft) S-SW 202 9,8 C 4,4 km/h (1 Bft)
19.05.2015 01:55 14,2 C 14,2 C 74 % 1009,2 hPa 0,0 mm 3,6 km/h (1 Bft) S-SO 157 9,6 C 6,5 km/h (2 Bft)
19.05.2015 02:00 14,1 C 14,0 C 75 % 1009,2 hPa 0,0 mm 3,4 km/h (1 Bft) NW 315 9,7 C 8,5 km/h (2 Bft)
19.05.2015 02:05 14,2 C 13,9 C 75 % 1009,2 hPa 0,0 mm 3,1 km/h (1 Bft) W-SW 247 9,8 C 4,4 km/h (1 Bft)
19.05.2015 02:10 13,8 C 13,5 C 76 % 1009,2 hPa 0,0 mm 2,8 km/h (1 Bft) SW 225 9,6 C 5,2 km/h (1 Bft)
19.05.2015 02:15 13,6 C 13,2 C 77 % 1009,4 hPa 0,0 mm 2,6 km/h (1 Bft) W-SW 247 9,6 C 7,3 km/h (2 Bft)
19.05.2015 02:20 13,4 C 13,0 C 79 % 1009,4 hPa 1,4 mm 4,1 km/h (1 Bft) NW 315 9,8 C 5,7 km/h (1 Bft)
19.05.2015 02:25 13,4 C 13,0 C 80 % 1009,4 hPa 0,0 mm 5,4 km/h (1 Bft) W-NW 292 10,0 C 10,6 km/h (2 Bft)
19.05.2015 02:30 13,3 C 12,9 C 81 % 1009,4 hPa 0,0 mm 7,0 km/h (2 Bft) W 270 10,1 C 13,7 km/h (3 Bft)
19.05.2015 02:35 13,1 C 12,8 C 81 % 1009,4 hPa 0,0 mm 6,2 km/h (2 Bft) SW 225 9,9 C 18,4 km/h (3 Bft)
19.05.2015 02:40 12,9 C 12,6 C 82 % 1009,4 hPa 0,0 mm 6,2 km/h (2 Bft) NW 315 9,9 C 7,3 km/h (2 Bft)
19.05.2015 02:45 12,9 C 12,6 C 83 % 1009,4 hPa 0,0 mm 6,7 km/h (2 Bft) S 180 10,1 C 8,8 km/h (2 Bft)
19.05.2015 02:50 12,7 C 12,4 C 83 % 1009,4 hPa 0,7 mm 4,4 km/h (1 Bft) O-SO 112 9,9 C 3,9 km/h (1 Bft)
19.05.2015 02:55 12,6 C 12,3 C 83 % 1009,2 hPa 0,0 mm 2,1 km/h (1 Bft) W-SW 247 9,8 C 20,7 km/h (4 Bft)
19.05.2015 03:00 12,5 C 12,3 C 83 % 1009,2 hPa 0,0 mm 2,3 km/h (1 Bft) S-SW 202 9,7 C 10,4 km/h (2 Bft)
19.05.2015 03:05 12,5 C 12,3 C 84 % 1009,2 hPa 0,0 mm 3,9 km/h (1 Bft) SW 225 9,9 C 6,2 km/h (2 Bft)
19.05.2015 03:10 12,5 C 12,2 C 84 % 1009,2 hPa 0,0 mm 6,0 km/h (2 Bft) SO 135 9,9 C 10,1 km/h (2 Bft)
19.05.2015 03:15 12,5 C 12,2 C 84 % 1009,2 hPa 0,0 mm 5,4 km/h (1 Bft) O 90 9,9 C 8,0 km/h (2 Bft)
19.05.2015 03:20 12,3 C 12,0 C 84 % 1009,2 hPa 0,0 mm 6,0 km/h (2 Bft) SW 225 9,7 C 7,0 km/h (2 Bft)
19.05.2015 03:25 12,2 C 12,0 C 84 % 1009,2 hPa 0,0 mm 5,2 km/h (1 Bft) S-SO 157 9,6 C 3,4 km/h (1 Bft)
19.05.2015 03:30 12,0 C 11,8 C 84 % 1009,2 hPa 0,7 mm 5,4 km/h (1 Bft) W 270 9,4 C 8,5 km/h (2 Bft)
19.05.2015 03:35 11,8 C 11,6 C 84 % 1009,1 hPa 0,0 mm 6,2 km/h (2 Bft) W 270 9,2 C 14,2 km/h (3 Bft)
19.05.2015 03:40 11,5 C 11,2 C 83 % 1009,1 hPa 0,0 mm 6,5 km/h (2 Bft) S 180 8,7 C 17,6 km/h (3 Bft)
19.05.2015 03:45 11,5 C 11,2 C 83 % 1009,1 hPa 0,0 mm 6,2 km/h (2 Bft) W 270 8,7 C 23,0 km/h (4 Bft)
19.05.2015 03:50 11,2 C 10,9 C 83 % 1009,1 hPa 0,7 mm 7,0 km/h (2 Bft) SW 225 8,4 C 14,5 km/h (3 Bft)
19.05.2015 03:55 11,1 C 10,7 C 83 % 1009,3 hPa 0,0 mm 8,0 km/h (2 Bft) W-SW 247 8,3 C 10,6 km/h (2 Bft)
19.05.2015 04:00 11,1 C 10,7 C 83 % 1009,3 hPa 0,0 mm 8,0 km/h (2 Bft) W-SW 247 8,3 C 14,8 km/h (3 Bft)
19.05.2015 04:05 11,1 C 10,7 C 83 % 1009,3 hPa 0,7 mm 7,3 km/h (2 Bft) S 180 8,3 C 7,0 km/h (2 Bft)
19.05.2015 04:10 11,1 C 10,7 C 84 % 1009,3 hPa 0,0 mm 8,8 km/h (2 Bft) W-SW 247 8,5 C 3,9 km/h (1 Bft)
19.05.2015 04:15 11,1 C 10,8 C 84 % 1009,2 hPa 0,0 mm 7,5 km/h (2 Bft) S 180 8,5 C 25,9 km/h (4 Bft)
19.05.2015 04:20 11,2 C 10,9 C 85 % 1009,2 hPa 0,7 mm 7,3 km/h (2 Bft) NO 45 8,8 C 8,3 km/h (2 Bft)
19.05.2015 04:25 11,2 C 10,9 C 85 % 1009,2 hPa 0,0 mm 7,8 km/h (2 Bft) S-SW 202 8,8 C 10,1 km/h (2 Bft)
19.05.2015 04:30 11,2 C 10,9 C 85 % 1009,2 hPa 0,0 mm 6,7 km/h (2 Bft) W-NW 292 8,8 C 3,6 km/h (1 Bft)
19.05.2015 04:35 11,1 C 10,9 C 85 % 1009,6 hPa 0,0 mm 4,9 km/h (1 Bft) S-SW 202 8,7 C 2,6 km/h (1 Bft)
19.05.2015 04:40 11,1 C 10,9 C 85 % 1009,6 hPa 0,0 mm 4,9 km/h (1 Bft) S-SW 202 8,7 C 3,6 km/h (1 Bft)
19.05.2015 04:45 11,1 C 10,9 C 85 % 1009,6 hPa 0,0 mm 4,9 km/h (1 Bft) W-SW 247 8,7 C 7,8 km/h (2 Bft)
19.05.2015 04:50 11,1 C 10,9 C 85 % 1009,6 hPa 0,0 mm 2,8 km/h (1 Bft) SW 225 8,7 C 3,1 km/h (1 Bft)
19.05.2015 04:55 11,1 C 10,8 C 85 % 1009,5 hPa 0,0 mm 2,8 km/h (1 Bft) S 180 8,7 C 9,6 km/h (2 Bft)
19.05.2015 05:00 11,0 C 10,7 C 85 % 1009,5 hPa 0,0 mm 4,1 km/h (1 Bft) W-SW 247 8,6 C 8,5 km/h (2 Bft)
19.05.2015 05:05 11,0 C 10,7 C 85 % 1009,5 hPa 0,0 mm 5,4 km/h (1 Bft) SW 225 8,6 C 2,6 km/h (1 Bft)
19.05.2015 05:10 10,8 C 10,6 C 85 % 1009,5 hPa 0,0 mm 3,9 km/h (1 Bft) S-SO 157 8,4 C 6,2 km/h (2 Bft)
19.05.2015 05:15 10,6 C 10,4 C 85 % 1009,2 hPa 0,0 mm 2,6 km/h (1 Bft) S-SW 202 8,2 C 3,4 km/h (1 Bft)
19.05.2015 05:20 10,3 C 10,1 C 86 % 1009,2 hPa 0,0 mm 1,6 km/h (1 Bft) SO 135 8,1 C 0,0 km/h (0 Bft)
19.05.2015 05:25 10,2 C 10,0 C 86 % 1009,2 hPa 0,0 mm 0,5 km/h (0 Bft) O-SO 112 8,0 C 0,0 km/h (0 Bft)
19.05.2015 05:30 10,1 C 9,9 C 87 % 1009,2 hPa 0,0 mm 0,3 km/h (0 Bft) O-SO 112 8,0 C 0,0 km/h (0 Bft)
19.05.2015 05:35 10,1 C 9,9 C 87 % 1009,1 hPa 0,0 mm 0,3 km/h (0 Bft) S-SO 157 8,0 C 0,0 km/h (0 Bft)
19.05.2015 05:40 10,1 C 9,9 C 87 % 1009,1 hPa 0,0 mm 0,3 km/h (0 Bft) S-SW 202 8,0 C 0,0 km/h (0 Bft)
19.05.2015 05:45 10,0 C 9,8 C 87 % 1009,1 hPa 0,0 mm 0,0 km/h (0 Bft) O-SO 112 7,9 C 0,0 km/h (0 Bft)
19.05.2015 05:50 10,0 C 9,8 C 87 % 1009,1 hPa 0,0 mm 0,0 km/h (0 Bft) S-SO 157 7,9 C 0,0 km/h (0 Bft)
19.05.2015 05:55 10,0 C 9,8 C 87 % 1009,2 hPa 0,0 mm 0,0 km/h (0 Bft) S 180 7,9 C 0,0 km/h (0 Bft)
19.05.2015 06:00 10,0 C 9,8 C 87 % 1009,2 hPa 0,0 mm 0,0 km/h (0 Bft) S 180 7,9 C 2,6 km/h (1 Bft)
19.05.2015 06:05 10,0 C 9,8 C 87 % 1009,2 hPa 0,0 mm 0,3 km/h (0 Bft) S 180 7,9 C 3,1 km/h (1 Bft)
19.05.2015 06:10 10,0 C 9,8 C 88 % 1009,2 hPa 0,0 mm 1,3 km/h (1 Bft) SO 135 8,1 C 0,0 km/h (0 Bft)
19.05.2015 06:15 10,0 C 9,8 C 88 % 1009,2 hPa 0,0 mm 1,3 km/h (1 Bft) O-NO 67 8,1 C 5,4 km/h (1 Bft)
19.05.2015 06:20 10,0 C 9,8 C 88 % 1009,2 hPa 0,0 mm 0,8 km/h (0 Bft) NW 315 8,1 C 2,6 km/h (1 Bft)
19.05.2015 06:25 10,0 C 9,8 C 88 % 1009,2 hPa 0,0 mm 0,8 km/h (0 Bft) O-SO 112 8,1 C 0,0 km/h (0 Bft)
19.05.2015 06:30 10,0 C 9,8 C 88 % 1009,2 hPa 0,0 mm 0,3 km/h (0 Bft) W-SW 247 8,1 C 0,0 km/h (0 Bft)
19.05.2015 06:35 10,0 C 9,8 C 88 % 1009,7 hPa 0,0 mm 0,0 km/h (0 Bft) W-SW 247 8,1 C 0,0 km/h (0 Bft)
19.05.2015 06:40 10,0 C 9,8 C 88 % 1009,7 hPa 0,0 mm 0,5 km/h (0 Bft) O 90 8,1 C 0,0 km/h (0 Bft)
19.05.2015 06:45 10,0 C 9,8 C 88 % 1009,7 hPa 0,0 mm 0,5 km/h (0 Bft) O 90 8,1 C 0,0 km/h (0 Bft)
19.05.2015 06:50 10,0 C 9,9 C 84 % 1009,7 hPa 0,0 mm 0,0 km/h (0 Bft) O-NO 67 7,4 C 0,0 km/h (0 Bft)
19.05.2015 06:55 10,0 C 9,9 C 84 % 1009,7 hPa 0,0 mm 0,0 km/h (0 Bft) O-SO 112 7,4 C 0,0 km/h (0 Bft)
19.05.2015 07:00 10,1 C 9,9 C 88 % 1009,7 hPa 0,0 mm 0,0 km/h (0 Bft) O-SO 112 8,2 C 0,0 km/h (0 Bft)
19.05.2015 07:05 10,1 C 10,0 C 88 % 1009,7 hPa 0,0 mm 0,0 km/h (0 Bft) O-SO 112 8,2 C 0,0 km/h (0 Bft)
19.05.2015 07:10 10,1 C 10,0 C 85 % 1009,7 hPa 0,0 mm 0,0 km/h (0 Bft) O-SO 112 7,7 C 0,0 km/h (0 Bft)
19.05.2015 07:15 10,1 C 10,0 C 85 % 1010,0 hPa 0,0 mm 0,0 km/h (0 Bft) O-SO 112 7,7 C 0,0 km/h (0 Bft)
19.05.2015 07:20 10,1 C 10,0 C 85 % 1010,0 hPa 0,0 mm 0,0 km/h (0 Bft) S-SO 157 7,7 C 0,0 km/h (0 Bft)
19.05.2015 07:25 10,2 C 10,1 C 88 % 1010,0 hPa 0,0 mm 0,0 km/h (0 Bft) NW 315 8,3 C 3,1 km/h (1 Bft)
19.05.2015 07:30 10,2 C 10,1 C 85 % 1010,0 hPa 0,0 mm 0,3 km/h (0 Bft) W-SW 247 7,8 C 0,0 km/h (0 Bft)
19.05.2015 07:35 10,2 C 10,2 C 85 % 1010,1 hPa 0,0 mm 0,3 km/h (0 Bft) S 180 7,8 C 0,0 km/h (0 Bft)
19.05.2015 07:40 10,2 C 10,1 C 85 % 1010,1 hPa 0,0 mm 0,3 km/h (0 Bft) W-SW 247 7,8 C 0,0 km/h (0 Bft)
19.05.2015 07:45 10,2 C 10,2 C 85 % 1010,1 hPa 0,0 mm 0,3 km/h (0 Bft) SO 135 7,8 C 0,0 km/h (0 Bft)
19.05.2015 07:50 10,2 C 10,2 C 85 % 1010,1 hPa 0,0 mm 0,0 km/h (0 Bft) SO 135 7,8 C 0,0 km/h (0 Bft)
19.05.2015 07:55 10,3 C 10,2 C 88 % 1009,8 hPa 0,0 mm 0,0 km/h (0 Bft) O-SO 112 8,4 C 0,0 km/h (0 Bft)
19.05.2015 08:00 10,3 C 10,3 C 85 % 1009,8 hPa 0,0 mm 0,0 km/h (0 Bft) O-SO 112 7,9 C 0,0 km/h (0 Bft)
19.05.2015 08:05 10,3 C 10,3 C 85 % 1009,8 hPa 0,0 mm 0,0 km/h (0 Bft) O-SO 112 7,9 C 0,0 km/h (0 Bft)
19.05.2015 08:10 10,3 C 10,3 C 85 % 1009,8 hPa 0,0 mm 0,0 km/h (0 Bft) O 90 7,9 C 0,0 km/h (0 Bft)
19.05.2015 08:15 10,4 C 10,4 C 85 % 1009,9 hPa 0,0 mm 0,0 km/h (0 Bft) O-NO 67 8,0 C 0,0 km/h (0 Bft)
19.05.2015 08:20 10,4 C 10,4 C 86 % 1009,9 hPa 0,0 mm 0,0 km/h (0 Bft) O-SO 112 8,2 C 0,0 km/h (0 Bft)
19.05.2015 08:25 10,4 C 10,4 C 86 % 1009,9 hPa 0,0 mm 0,0 km/h (0 Bft) O-SO 112 8,2 C 0,0 km/h (0 Bft)
19.05.2015 08:30 10,5 C 10,4 C 89 % 1009,9 hPa 0,0 mm 0,0 km/h (0 Bft) O-NO 67 8,8 C 0,0 km/h (0 Bft)
19.05.2015 08:35 10,5 C 10,4 C 89 % 1009,9 hPa 0,0 mm 0,0 km/h (0 Bft) O-SO 112 8,8 C 0,0 km/h (0 Bft)
19.05.2015 08:40 10,5 C 10,4 C 89 % 1009,9 hPa 0,0 mm 0,0 km/h (0 Bft) N-NO 22 8,8 C 0,0 km/h (0 Bft)
19.05.2015 08:45 10,5 C 10,5 C 86 % 1009,9 hPa 0,0 mm 0,0 km/h (0 Bft) N-NO 22 8,3 C 0,0 km/h (0 Bft)
19.05.2015 08:50 10,5 C 10,5 C 86 % 1009,9 hPa 0,0 mm 0,0 km/h (0 Bft) O-NO 67 8,3 C 0,0 km/h (0 Bft)
19.05.2015 08:55 10,6 C 10,6 C 86 % 1010,0 hPa 0,0 mm 0,0 km/h (0 Bft) O-NO 67 8,4 C 0,0 km/h (0 Bft)
19.05.2015 09:00 10,6 C 10,7 C 86 % 1010,0 hPa 0,0 mm 0,0 km/h (0 Bft) O-NO 67 8,4 C 0,0 km/h (0 Bft)
19.05.2015 09:05 10,7 C 10,8 C 86 % 1010,0 hPa 0,0 mm 0,0 km/h (0 Bft) NW 315 8,5 C 0,0 km/h (0 Bft)
19.05.2015 09:10 10,8 C 10,8 C 86 % 1010,0 hPa 0,0 mm 2,6 km/h (1 Bft) S-SO 157 8,6 C 8,8 km/h (2 Bft)
19.05.2015 09:15 10,9 C 10,8 C 88 % 1010,2 hPa 0,0 mm 2,6 km/h (1 Bft) SO 135 9,0 C 0,0 km/h (0 Bft)
19.05.2015 09:20 10,8 C 10,7 C 88 % 1010,2 hPa 0,0 mm 2,1 km/h (1 Bft) W-SW 247 8,9 C 4,4 km/h (1 Bft)
19.05.2015 09:25 10,8 C 10,7 C 88 % 1010,2 hPa 0,0 mm 1,6 km/h (1 Bft) S 180 8,9 C 4,7 km/h (1 Bft)
19.05.2015 09:30 10,8 C 10,7 C 85 % 1010,2 hPa 0,0 mm 2,1 km/h (1 Bft) S-SO 157 8,4 C 2,8 km/h (1 Bft)
19.05.2015 09:35 10,9 C 10,7 C 88 % 1010,2 hPa 0,0 mm 1,3 km/h (1 Bft) S-SO 157 9,0 C 0,0 km/h (0 Bft)
19.05.2015 09:40 10,9 C 10,8 C 85 % 1010,2 hPa 0,0 mm 1,0 km/h (0 Bft) S-SO 157 8,5 C 0,0 km/h (0 Bft)
19.05.2015 09:45 11,0 C 10,9 C 88 % 1010,2 hPa 0,0 mm 1,0 km/h (0 Bft) S-SO 157 9,1 C 0,0 km/h (0 Bft)
19.05.2015 09:50 11,0 C 11,0 C 85 % 1010,2 hPa 0,0 mm 0,3 km/h (0 Bft) S-SO 157 8,6 C 0,0 km/h (0 Bft)
19.05.2015 09:55 11,1 C 11,2 C 85 % 1010,2 hPa 0,0 mm 0,0 km/h (0 Bft) S-SO 157 8,7 C 0,0 km/h (0 Bft)
19.05.2015 10:00 11,3 C 11,7 C 85 % 1010,2 hPa 0,0 mm 0,0 km/h (0 Bft) S-SO 157 8,9 C 0,0 km/h (0 Bft)
19.05.2015 10:05 11,5 C 12,1 C 85 % 1010,2 hPa 0,0 mm 0,0 km/h (0 Bft) O-SO 112 9,1 C 0,0 km/h (0 Bft)
19.05.2015 10:10 11,9 C 12,4 C 85 % 1010,2 hPa 0,0 mm 0,0 km/h (0 Bft) W 270 9,5 C 0,0 km/h (0 Bft)
19.05.2015 10:15 12,0 C 12,5 C 85 % 1010,4 hPa 0,0 mm 0,0 km/h (0 Bft) S-SO 157 9,6 C 0,0 km/h (0 Bft)
19.05.2015 10:20 12,2 C 12,9 C 85 % 1010,4 hPa 0,0 mm 0,0 km/h (0 Bft) S-SO 157 9,8 C 0,0 km/h (0 Bft)
19.05.2015 10:25 12,5 C 13,3 C 85 % 1010,4 hPa 0,0 mm 0,3 km/h (0 Bft) S 180 10,0 C 5,2 km/h (1 Bft)
19.05.2015 10:30 12,8 C 13,9 C 84 % 1010,4 hPa 0,0 mm 1,8 km/h (1 Bft) W-SW 247 10,2 C 5,4 km/h (1 Bft)
19.05.2015 10:35 12,9 C 14,2 C 84 % 1010,6 hPa 0,0 mm 3,1 km/h (1 Bft) S-SW 202 10,3 C 4,7 km/h (1 Bft)
19.05.2015 10:40 12,9 C 14,3 C 83 % 1010,6 hPa 0,0 mm 2,6 km/h (1 Bft) S-SW 202 10,1 C 3,4 km/h (1 Bft)
19.05.2015 10:45 13,0 C 14,3 C 82 % 1010,6 hPa 0,0 mm 1,0 km/h (0 Bft) NO 45 10,0 C 0,0 km/h (0 Bft)
19.05.2015 10:50 13,0 C 14,2 C 82 % 1010,6 hPa 0,0 mm 0,5 km/h (0 Bft) SO 135 10,0 C 0,0 km/h (0 Bft)
19.05.2015 10:55 13,0 C 14,1 C 82 % 1010,6 hPa 0,0 mm 0,8 km/h (0 Bft) N-NO 22 10,0 C 0,0 km/h (0 Bft)
19.05.2015 11:00 13,0 C 14,1 C 81 % 1010,6 hPa 0,0 mm 3,4 km/h (1 Bft) S-SW 202 9,8 C 4,7 km/h (1 Bft)
19.05.2015 11:05 13,0 C 14,0 C 80 % 1010,6 hPa 0,0 mm 4,4 km/h (1 Bft) W-SW 247 9,6 C 4,4 km/h (1 Bft)
19.05.2015 11:10 13,0 C 14,3 C 80 % 1010,6 hPa 0,0 mm 2,8 km/h (1 Bft) NW 315 9,6 C 0,0 km/h (0 Bft)
19.05.2015 11:15 13,3 C 14,6 C 80 % 1010,5 hPa 0,0 mm 1,6 km/h (1 Bft) W-SW 247 9,9 C 0,0 km/h (0 Bft)
19.05.2015 11:20 13,7 C 15,2 C 79 % 1010,5 hPa 0,0 mm 1,0 km/h (0 Bft) W-SW 247 10,1 C 7,0 km/h (2 Bft)
19.05.2015 11:25 13,7 C 15,3 C 79 % 1010,5 hPa 0,0 mm 1,3 km/h (1 Bft) NW 315 10,1 C 4,7 km/h (1 Bft)
19.05.2015 11:30 13,8 C 15,4 C 79 % 1010,5 hPa 0,0 mm 1,8 km/h (1 Bft) SW 225 10,2 C 5,4 km/h (1 Bft)
19.05.2015 11:35 13,8 C 15,5 C 78 % 1010,6 hPa 0,0 mm 1,6 km/h (1 Bft) W-SW 247 10,0 C 3,1 km/h (1 Bft)
19.05.2015 11:40 14,1 C 16,1 C 78 % 1010,6 hPa 0,0 mm 1,3 km/h (1 Bft) N-NW 337 10,3 C 0,0 km/h (0 Bft)
19.05.2015 11:45 14,5 C 16,8 C 77 % 1010,6 hPa 0,0 mm 2,1 km/h (1 Bft) W 270 10,5 C 4,7 km/h (1 Bft)
19.05.2015 11:50 15,3 C 18,9 C 77 % 1010,6 hPa 0,0 mm 2,8 km/h (1 Bft) W 270 11,3 C 0,0 km/h (0 Bft)
19.05.2015 11:55 15,2 C 18,9 C 76 % 1010,6 hPa 0,0 mm 3,4 km/h (1 Bft) W 270 11,0 C 4,9 km/h (1 Bft)
19.05.2015 12:00 14,7 C 18,0 C 75 % 1010,6 hPa 0,0 mm 4,4 km/h (1 Bft) W 270 10,3 C 9,3 km/h (2 Bft)
19.05.2015 12:05 14,6 C 17,7 C 74 % 1010,6 hPa 0,0 mm 4,9 km/h (1 Bft) S 180 10,0 C 0,0 km/h (0 Bft)
19.05.2015 12:10 14,9 C 17,8 C 74 % 1010,6 hPa 0,0 mm 4,7 km/h (1 Bft) W 270 10,3 C 4,7 km/h (1 Bft)
19.05.2015 12:15 14,9 C 17,6 C 73 % 1010,8 hPa 0,0 mm 3,9 km/h (1 Bft) W-SW 247 10,1 C 5,2 km/h (1 Bft)
19.05.2015 12:20 15,0 C 17,6 C 73 % 1010,8 hPa 0,0 mm 4,1 km/h (1 Bft) W-SW 247 10,2 C 5,4 km/h (1 Bft)
19.05.2015 12:25 15,0 C 17,7 C 72 % 1010,8 hPa 0,0 mm 3,9 km/h (1 Bft) S 180 10,0 C 4,9 km/h (1 Bft)
19.05.2015 12:30 14,9 C 17,6 C 72 % 1010,8 hPa 0,0 mm 4,7 km/h (1 Bft) NW 315 9,9 C 5,7 km/h (1 Bft)
19.05.2015 12:35 14,9 C 17,6 C 72 % 1010,6 hPa 0,0 mm 4,9 km/h (1 Bft) W-SW 247 9,9 C 6,7 km/h (2 Bft)
19.05.2015 12:40 14,8 C 17,3 C 72 % 1010,6 hPa 0,0 mm 4,4 km/h (1 Bft) W-SW 247 9,8 C 6,0 km/h (2 Bft)
19.05.2015 12:45 14,5 C 16,5 C 71 % 1010,6 hPa 0,0 mm 5,7 km/h (1 Bft) NW 315 9,3 C 9,6 km/h (2 Bft)
19.05.2015 12:50 14,1 C 15,7 C 71 % 1010,6 hPa 0,0 mm 7,0 km/h (2 Bft) W-NW 292 8,9 C 9,8 km/h (2 Bft)
19.05.2015 12:55 14,0 C 15,3 C 71 % 1010,8 hPa 0,0 mm 6,0 km/h (2 Bft) SW 225 8,8 C 12,2 km/h (2 Bft)
19.05.2015 13:00 13,8 C 15,0 C 71 % 1010,8 hPa 0,0 mm 5,7 km/h (1 Bft) W 270 8,6 C 4,9 km/h (1 Bft)
19.05.2015 13:05 13,8 C 14,9 C 72 % 1010,8 hPa 0,0 mm 4,1 km/h (1 Bft) W 270 8,8 C 2,8 km/h (1 Bft)
19.05.2015 13:10 13,8 C 14,9 C 72 % 1010,8 hPa 0,0 mm 1,8 km/h (1 Bft) W 270 8,8 C 5,7 km/h (1 Bft)
19.05.2015 13:15 13,8 C 15,0 C 72 % 1010,7 hPa 0,0 mm 2,6 km/h (1 Bft) W 270 8,8 C 6,2 km/h (2 Bft)
19.05.2015 13:20 13,9 C 15,2 C 72 % 1010,7 hPa 0,0 mm 2,6 km/h (1 Bft) W 270 8,9 C 6,2 km/h (2 Bft)
19.05.2015 13:25 14,1 C 15,5 C 72 % 1010,7 hPa 0,0 mm 1,6 km/h (1 Bft) W 270 9,1 C 0,0 km/h (0 Bft)
19.05.2015 13:30 14,1 C 15,8 C 71 % 1010,7 hPa 0,0 mm 1,6 km/h (1 Bft) W 270 8,9 C 5,2 km/h (1 Bft)
19.05.2015 13:35 14,1 C 15,7 C 72 % 1010,6 hPa 0,0 mm 1,3 km/h (1 Bft) W 270 9,1 C 0,0 km/h (0 Bft)
19.05.2015 13:40 13,9 C 15,4 C 72 % 1010,6 hPa 0,0 mm 0,8 km/h (0 Bft) W 270 8,9 C 3,6 km/h (1 Bft)
19.05.2015 13:45 13,8 C 15,0 C 72 % 1010,6 hPa 0,0 mm 0,5 km/h (0 Bft) S-SW 202 8,8 C 0,0 km/h (0 Bft)
19.05.2015 13:50 13,6 C 14,5 C 72 % 1010,6 hPa 0,0 mm 1,0 km/h (0 Bft) O-NO 67 8,6 C 11,4 km/h (2 Bft)
19.05.2015 13:55 13,4 C 14,1 C 72 % 1010,5 hPa 0,0 mm 1,6 km/h (1 Bft) SW 225 8,5 C 2,6 km/h (1 Bft)
19.05.2015 14:00 13,2 C 13,5 C 72 % 1010,5 hPa 0,0 mm 2,1 km/h (1 Bft) W 270 8,3 C 4,1 km/h (1 Bft)
19.05.2015 14:05 13,0 C 12,9 C 73 % 1010,5 hPa 0,7 mm 1,6 km/h (1 Bft) S-SW 202 8,3 C 2,8 km/h (1 Bft)
19.05.2015 14:10 12,5 C 12,2 C 74 % 1010,5 hPa 0,0 mm 1,0 km/h (0 Bft) W-SW 247 8,0 C 5,4 km/h (1 Bft)
19.05.2015 14:15 12,3 C 12,0 C 75 % 1010,8 hPa 0,0 mm 0,8 km/h (0 Bft) S-SW 202 8,0 C 2,6 km/h (1 Bft)
19.05.2015 14:20 12,1 C 11,7 C 76 % 1010,8 hPa 0,0 mm 1,3 km/h (1 Bft) SW 225 8,0 C 0,0 km/h (0 Bft)
19.05.2015 14:25 11,8 C 11,5 C 76 % 1010,8 hPa 0,7 mm 2,8 km/h (1 Bft) W-SW 247 7,7 C 10,4 km/h (2 Bft)
19.05.2015 14:30 11,5 C 11,2 C 77 % 1010,8 hPa 0,0 mm 4,1 km/h (1 Bft) SW 225 7,6 C 10,9 km/h (2 Bft)
19.05.2015 14:35 11,3 C 11,0 C 78 % 1010,9 hPa 0,7 mm 4,9 km/h (1 Bft) W-SW 247 7,6 C 3,6 km/h (1 Bft)
19.05.2015 14:40 11,3 C 11,0 C 79 % 1010,9 hPa 0,0 mm 3,6 km/h (1 Bft) SW 225 7,8 C 7,8 km/h (2 Bft)
19.05.2015 14:45 11,2 C 11,0 C 79 % 1010,9 hPa 0,0 mm 2,6 km/h (1 Bft) W 270 7,7 C 0,0 km/h (0 Bft)
19.05.2015 14:50 11,1 C 11,0 C 79 % 1010,9 hPa 0,7 mm 2,3 km/h (1 Bft) W-SW 247 7,6 C 3,4 km/h (1 Bft)
19.05.2015 14:55 11,1 C 11,1 C 79 % 1011,1 hPa 0,0 mm 1,8 km/h (1 Bft) S 180 7,6 C 6,5 km/h (2 Bft)
19.05.2015 15:00 11,1 C 11,0 C 79 % 1011,1 hPa 0,7 mm 2,1 km/h (1 Bft) W-SW 247 7,6 C 6,5 km/h (2 Bft)
19.05.2015 15:05 11,0 C 10,8 C 81 % 1011,1 hPa 0,0 mm 3,6 km/h (1 Bft) W 270 7,9 C 6,2 km/h (2 Bft)
19.05.2015 15:10 10,9 C 10,8 C 80 % 1011,1 hPa 0,7 mm 4,9 km/h (1 Bft) W-SW 247 7,6 C 3,1 km/h (1 Bft)
19.05.2015 15:15 10,9 C 10,8 C 81 % 1011,2 hPa 0,0 mm 4,4 km/h (1 Bft) SW 225 7,8 C 7,0 km/h (2 Bft)
19.05.2015 15:20 10,9 C 10,9 C 81 % 1011,2 hPa 0,7 mm 3,1 km/h (1 Bft) W-SW 247 7,8 C 10,4 km/h (2 Bft)
19.05.2015 15:25 10,9 C 10,9 C 81 % 1011,2 hPa 0,0 mm 2,8 km/h (1 Bft) S-SW 202 7,8 C 3,4 km/h (1 Bft)
19.05.2015 15:30 10,9 C 10,9 C 81 % 1011,2 hPa 0,0 mm 2,8 km/h (1 Bft) S 180 7,8 C 4,4 km/h (1 Bft)
19.05.2015 15:35 11,0 C 11,1 C 81 % 1011,1 hPa 0,0 mm 1,8 km/h (1 Bft) S 180 7,9 C 0,0 km/h (0 Bft)
19.05.2015 15:40 11,1 C 11,3 C 82 % 1011,1 hPa 0,7 mm 2,1 km/h (1 Bft) NW 315 8,1 C 9,1 km/h (2 Bft)
19.05.2015 15:45 11,1 C 11,5 C 82 % 1011,1 hPa 0,0 mm 1,8 km/h (1 Bft) W-SW 247 8,1 C 4,4 km/h (1 Bft)
19.05.2015 15:50 11,3 C 11,7 C 82 % 1011,1 hPa 0,0 mm 1,0 km/h (0 Bft) W-SW 247 8,3 C 0,0 km/h (0 Bft)
19.05.2015 15:55 11,5 C 12,1 C 82 % 1010,9 hPa 0,0 mm 0,8 km/h (0 Bft) W 270 8,5 C 3,4 km/h (1 Bft)
19.05.2015 16:00 11,8 C 12,2 C 82 % 1010,9 hPa 0,0 mm 1,0 km/h (0 Bft) SW 225 8,8 C 0,0 km/h (0 Bft)
19.05.2015 16:05 11,7 C 12,0 C 82 % 1010,9 hPa 0,0 mm 1,6 km/h (1 Bft) W-NW 292 8,7 C 2,6 km/h (1 Bft)
19.05.2015 16:10 11,6 C 11,7 C 82 % 1010,9 hPa 0,0 mm 1,6 km/h (1 Bft) W-NW 292 8,6 C 3,6 km/h (1 Bft)
19.05.2015 16:15 11,4 C 11,4 C 82 % 1011,1 hPa 0,0 mm 1,3 km/h (1 Bft) SW 225 8,4 C 3,6 km/h (1 Bft)
19.05.2015 16:20 11,3 C 11,2 C 82 % 1011,1 hPa 0,0 mm 1,6 km/h (1 Bft) W-SW 247 8,3 C 3,4 km/h (1 Bft)
19.05.2015 16:25 11,1 C 11,1 C 82 % 1011,1 hPa 0,0 mm 1,0 km/h (0 Bft) O-SO 112 8,1 C 0,0 km/h (0 Bft)
19.05.2015 16:30 11,1 C 11,3 C 82 % 1011,1 hPa 0,0 mm 0,3 km/h (0 Bft) NW 315 8,1 C 0,0 km/h (0 Bft)
19.05.2015 16:35 11,3 C 11,2 C 82 % 1011,0 hPa 0,0 mm 0,0 km/h (0 Bft) W-NW 292 8,3 C 0,0 km/h (0 Bft)
19.05.2015 16:40 11,3 C 11,2 C 82 % 1011,0 hPa 0,7 mm 0,5 km/h (0 Bft) W-SW 247 8,3 C 0,0 km/h (0 Bft)
19.05.2015 16:45 11,1 C 10,9 C 83 % 1011,0 hPa 0,0 mm 1,0 km/h (0 Bft) W 270 8,3 C 0,0 km/h (0 Bft)
19.05.2015 16:50 11,0 C 10,9 C 83 % 1011,0 hPa 0,0 mm 0,8 km/h (0 Bft) W-SW 247 8,2 C 0,0 km/h (0 Bft)
19.05.2015 16:55 11,1 C 11,0 C 83 % 1011,2 hPa 0,0 mm 0,0 km/h (0 Bft) S 180 8,3 C 0,0 km/h (0 Bft)
19.05.2015 17:00 11,1 C 10,9 C 84 % 1011,2 hPa 0,0 mm 0,0 km/h (0 Bft) W-SW 247 8,5 C 0,0 km/h (0 Bft)
19.05.2015 17:05 11,0 C 11,0 C 83 % 1011,2 hPa 0,0 mm 1,0 km/h (0 Bft) W 270 8,2 C 0,0 km/h (0 Bft)
19.05.2015 17:10 11,0 C 10,9 C 83 % 1011,2 hPa 0,0 mm 1,3 km/h (1 Bft) SW 225 8,2 C 0,0 km/h (0 Bft)
19.05.2015 17:15 10,9 C 10,9 C 83 % 1010,8 hPa 0,0 mm 0,5 km/h (0 Bft) S 180 8,1 C 3,4 km/h (1 Bft)
19.05.2015 17:20 11,0 C 11,0 C 83 % 1010,8 hPa 0,0 mm 0,3 km/h (0 Bft) W-SW 247 8,2 C 0,0 km/h (0 Bft)
19.05.2015 17:25 11,0 C 11,1 C 83 % 1010,8 hPa 0,0 mm 0,3 km/h (0 Bft) W-SW 247 8,2 C 0,0 km/h (0 Bft)
19.05.2015 17:30 11,0 C 11,0 C 83 % 1010,8 hPa 0,0 mm 0,8 km/h (0 Bft) W 270 8,2 C 0,0 km/h (0 Bft)
19.05.2015 17:35 11,0 C 11,0 C 83 % 1010,9 hPa 0,0 mm 0,8 km/h (0 Bft) S-SO 157 8,2 C 0,0 km/h (0 Bft)
19.05.2015 17:40 10,9 C 10,8 C 83 % 1010,9 hPa 0,0 mm 1,8 km/h (1 Bft) W-SW 247 8,1 C 5,7 km/h (1 Bft)
19.05.2015 17:45 10,8 C 10,8 C 83 % 1010,9 hPa 0,0 mm 1,8 km/h (1 Bft) SW 225 8,0 C 0,0 km/h (0 Bft)
19.05.2015 17:50 10,8 C 10,8 C 83 % 1010,9 hPa 0,0 mm 0,3 km/h (0 Bft) W-SW 247 8,0 C 0,0 km/h (0 Bft)
19.05.2015 17:55 10,8 C 10,8 C 83 % 1010,9 hPa 0,0 mm 0,0 km/h (0 Bft) W 270 8,0 C 0,0 km/h (0 Bft)
19.05.2015 18:00 10,7 C 10,7 C 83 % 1010,9 hPa 0,0 mm 0,0 km/h (0 Bft) S 180 7,9 C 0,0 km/h (0 Bft)
19.05.2015 18:05 10,7 C 10,6 C 83 % 1010,9 hPa 0,0 mm 0,3 km/h (0 Bft) S 180 7,9 C 6,5 km/h (2 Bft)
19.05.2015 18:10 10,5 C 10,4 C 85 % 1010,9 hPa 0,0 mm 0,8 km/h (0 Bft) S 180 8,1 C 0,0 km/h (0 Bft)
19.05.2015 18:15 10,3 C 10,2 C 85 % 1011,1 hPa 0,0 mm 0,8 km/h (0 Bft) S-SO 157 7,9 C 0,0 km/h (0 Bft)
19.05.2015 18:20 10,2 C 10,0 C 85 % 1011,1 hPa 0,0 mm 0,0 km/h (0 Bft) SO 135 7,8 C 0,0 km/h (0 Bft)
19.05.2015 18:25 10,2 C 10,0 C 86 % 1011,1 hPa 0,0 mm 0,0 km/h (0 Bft) O-SO 112 8,0 C 0,0 km/h (0 Bft)
19.05.2015 18:30 10,1 C 10,0 C 86 % 1011,1 hPa 0,7 mm 0,0 km/h (0 Bft) O-SO 112 7,9 C 0,0 km/h (0 Bft)
19.05.2015 18:35 10,0 C 9,9 C 87 % 1011,2 hPa 0,0 mm 0,0 km/h (0 Bft) O-SO 112 7,9 C 0,0 km/h (0 Bft)
19.05.2015 18:40 10,0 C 9,9 C 87 % 1011,2 hPa 0,0 mm 0,0 km/h (0 Bft) SO 135 7,9 C 0,0 km/h (0 Bft)
19.05.2015 18:45 10,0 C 9,9 C 87 % 1011,2 hPa 0,0 mm 0,0 km/h (0 Bft) O-SO 112 7,9 C 0,0 km/h (0 Bft)
19.05.2015 18:50 9,9 C 9,9 C 85 % 1011,2 hPa 0,0 mm 0,0 km/h (0 Bft) SO 135 7,5 C 0,0 km/h (0 Bft)
19.05.2015 18:55 9,8 C 9,8 C 85 % 1011,0 hPa 0,0 mm 0,0 km/h (0 Bft) SO 135 7,4 C 0,0 km/h (0 Bft)
19.05.2015 19:00 9,8 C 9,8 C 85 % 1011,0 hPa 0,7 mm 0,0 km/h (0 Bft) SW 225 7,4 C 0,0 km/h (0 Bft)
19.05.2015 19:05 9,8 C 9,7 C 87 % 1011,0 hPa 0,0 mm 0,0 km/h (0 Bft) S 180 7,7 C 0,0 km/h (0 Bft)
19.05.2015 19:10 9,7 C 9,6 C 87 % 1011,0 hPa 0,7 mm 0,0 km/h (0 Bft) S 180 7,6 C 0,0 km/h (0 Bft)
19.05.2015 19:15 9,6 C 9,6 C 85 % 1011,0 hPa 0,0 mm 0,0 km/h (0 Bft) S 180 7,2 C 0,0 km/h (0 Bft)
19.05.2015 19:20 9,5 C 9,5 C 85 % 1011,0 hPa 0,0 mm 0,0 km/h (0 Bft) S 180 7,1 C 0,0 km/h (0 Bft)
19.05.2015 19:25 9,5 C 9,5 C 85 % 1011,0 hPa 0,0 mm 0,0 km/h (0 Bft) S-SW 202 7,1 C 0,0 km/h (0 Bft)
19.05.2015 19:30 9,5 C 9,4 C 85 % 1011,0 hPa 0,0 mm 0,0 km/h (0 Bft) S 180 7,1 C 0,0 km/h (0 Bft)
19.05.2015 19:35 9,5 C 9,4 C 85 % 1011,1 hPa 0,7 mm 0,0 km/h (0 Bft) S 180 7,1 C 0,0 km/h (0 Bft)
19.05.2015 19:40 9,5 C 9,6 C 85 % 1011,1 hPa 0,0 mm 0,0 km/h (0 Bft) SW 225 7,1 C 0,0 km/h (0 Bft)
19.05.2015 19:45 9,6 C 9,6 C 85 % 1011,1 hPa 0,0 mm 0,0 km/h (0 Bft) S-SW 202 7,2 C 0,0 km/h (0 Bft)
19.05.2015 19:50 9,6 C 9,6 C 85 % 1011,1 hPa 0,0 mm 0,0 km/h (0 Bft) S 180 7,2 C 0,0 km/h (0 Bft)
19.05.2015 19:55 9,6 C 9,5 C 88 % 1011,1 hPa 0,0 mm 0,0 km/h (0 Bft) S-SO 157 7,7 C 0,0 km/h (0 Bft)
19.05.2015 20:00 9,5 C 9,5 C 85 % 1011,1 hPa 0,0 mm 0,0 km/h (0 Bft) S 180 7,1 C 0,0 km/h (0 Bft)
19.05.2015 20:05 9,5 C 9,4 C 88 % 1011,1 hPa 0,0 mm 0,0 km/h (0 Bft) S 180 7,6 C 0,0 km/h (0 Bft)
19.05.2015 20:10 9,5 C 9,4 C 88 % 1011,1 hPa 0,0 mm 0,0 km/h (0 Bft) SW 225 7,6 C 0,0 km/h (0 Bft)
19.05.2015 20:15 9,5 C 9,4 C 88 % 1011,2 hPa 0,7 mm 0,0 km/h (0 Bft) S 180 7,6 C 0,0 km/h (0 Bft)
19.05.2015 20:20 9,4 C 9,3 C 88 % 1011,2 hPa 0,0 mm 0,0 km/h (0 Bft) S-SW 202 7,5 C 0,0 km/h (0 Bft)
19.05.2015 20:25 9,4 C 9,3 C 88 % 1011,2 hPa 0,0 mm 0,0 km/h (0 Bft) S-SW 202 7,5 C 0,0 km/h (0 Bft)
19.05.2015 20:30 9,4 C 9,3 C 88 % 1011,2 hPa 0,0 mm 0,0 km/h (0 Bft) SW 225 7,5 C 0,0 km/h (0 Bft)
19.05.2015 20:35 9,3 C 9,2 C 88 % 1011,4 hPa 0,7 mm 0,0 km/h (0 Bft) S 180 7,4 C 0,0 km/h (0 Bft)
19.05.2015 20:40 9,2 C 9,2 C 86 % 1011,4 hPa 0,0 mm 0,0 km/h (0 Bft) S 180 7,0 C 0,0 km/h (0 Bft)
19.05.2015 20:45 9,2 C 9,2 C 86 % 1011,4 hPa 0,0 mm 0,0 km/h (0 Bft) S 180 7,0 C 0,0 km/h (0 Bft)
19.05.2015 20:50 9,2 C 9,1 C 88 % 1011,4 hPa 0,0 mm 0,0 km/h (0 Bft) S 180 7,3 C 0,0 km/h (0 Bft)
19.05.2015 20:55 9,2 C 9,1 C 88 % 1011,2 hPa 0,7 mm 0,0 km/h (0 Bft) S 180 7,3 C 0,0 km/h (0 Bft)
19.05.2015 21:00 9,2 C 9,1 C 88 % 1011,2 hPa 0,0 mm 0,0 km/h (0 Bft) S 180 7,3 C 0,0 km/h (0 Bft)
19.05.2015 21:05 9,2 C 9,1 C 88 % 1011,2 hPa 0,0 mm 0,0 km/h (0 Bft) S 180 7,3 C 0,0 km/h (0 Bft)
19.05.2015 21:10 9,2 C 9,1 C 89 % 1011,2 hPa 0,0 mm 0,0 km/h (0 Bft) S 180 7,5 C 0,0 km/h (0 Bft)
19.05.2015 21:15 9,2 C 9,1 C 89 % 1011,3 hPa 0,7 mm 0,0 km/h (0 Bft) S 180 7,5 C 0,0 km/h (0 Bft)
19.05.2015 21:20 9,1 C 9,0 C 86 % 1011,3 hPa 0,0 mm 0,0 km/h (0 Bft) S 180 6,9 C 0,0 km/h (0 Bft)
19.05.2015 21:25 9,1 C 9,0 C 89 % 1011,3 hPa 0,0 mm 0,0 km/h (0 Bft) S 180 7,4 C 0,0 km/h (0 Bft)
19.05.2015 21:30 9,1 C 9,0 C 89 % 1011,3 hPa 0,0 mm 0,0 km/h (0 Bft) S 180 7,4 C 0,0 km/h (0 Bft)
19.05.2015 21:35 9,1 C 9,0 C 86 % 1011,6 hPa 0,0 mm 0,0 km/h (0 Bft) SO 135 6,9 C 0,0 km/h (0 Bft)
19.05.2015 21:40 9,1 C 9,1 C 86 % 1011,6 hPa 0,0 mm 0,0 km/h (0 Bft) S-SO 157 6,9 C 0,0 km/h (0 Bft)
19.05.2015 21:45 9,1 C 9,1 C 86 % 1011,6 hPa 0,7 mm 0,0 km/h (0 Bft) W-SW 247 6,9 C 0,0 km/h (0 Bft)
19.05.2015 21:50 9,1 C 9,0 C 89 % 1011,6 hPa 0,0 mm 0,0 km/h (0 Bft) W-SW 247 7,4 C 0,0 km/h (0 Bft)
19.05.2015 21:55 9,1 C 9,0 C 89 % 1011,6 hPa 0,0 mm 0,0 km/h (0 Bft) SW 225 7,4 C 0,0 km/h (0 Bft)
19.05.2015 22:00 9,0 C 9,0 C 86 % 1011,6 hPa 0,0 mm 0,0 km/h (0 Bft) SW 225 6,8 C 0,0 km/h (0 Bft)
19.05.2015 22:05 9,0 C 8,9 C 89 % 1011,6 hPa 0,0 mm 0,0 km/h (0 Bft) SW 225 7,3 C 0,0 km/h (0 Bft)
19.05.2015 22:10 9,0 C 8,9 C 89 % 1011,6 hPa 0,0 mm 0,0 km/h (0 Bft) W-SW 247 7,3 C 0,0 km/h (0 Bft)
19.05.2015 22:15 9,0 C 8,9 C 89 % 1011,8 hPa 0,0 mm 0,0 km/h (0 Bft) S-SO 157 7,3 C 0,0 km/h (0 Bft)
19.05.2015 22:20 8,9 C 8,8 C 89 % 1011,8 hPa 0,7 mm 0,0 km/h (0 Bft) S 180 7,2 C 0,0 km/h (0 Bft)
19.05.2015 22:25 8,9 C 8,8 C 87 % 1011,8 hPa 0,0 mm 0,0 km/h (0 Bft) W-SW 247 6,9 C 0,0 km/h (0 Bft)
19.05.2015 22:30 8,9 C 8,8 C 89 % 1011,8 hPa 0,0 mm 0,0 km/h (0 Bft) S-SW 202 7,2 C 0,0 km/h (0 Bft)
19.05.2015 22:35 8,9 C 8,8 C 89 % 1011,9 hPa 0,0 mm 0,0 km/h (0 Bft) S 180 7,2 C 0,0 km/h (0 Bft)
19.05.2015 22:40 8,8 C 8,8 C 87 % 1011,9 hPa 0,0 mm 0,0 km/h (0 Bft) S 180 6,8 C 0,0 km/h (0 Bft)
19.05.2015 22:45 8,8 C 8,8 C 87 % 1011,9 hPa 0,0 mm 0,0 km/h (0 Bft) S 180 6,8 C 0,0 km/h (0 Bft)
19.05.2015 22:50 8,8 C 8,7 C 90 % 1011,9 hPa 0,0 mm 0,0 km/h (0 Bft) S 180 7,3 C 0,0 km/h (0 Bft)
19.05.2015 22:55 8,8 C 8,7 C 90 % 1011,9 hPa 0,7 mm 0,0 km/h (0 Bft) S 180 7,3 C 0,0 km/h (0 Bft)
19.05.2015 23:00 8,7 C 8,7 C 87 % 1011,9 hPa 0,0 mm 0,0 km/h (0 Bft) S 180 6,7 C 0,0 km/h (0 Bft)
19.05.2015 23:05 8,7 C 8,7 C 87 % 1011,9 hPa 0,0 mm 0,0 km/h (0 Bft) SW 225 6,7 C 0,0 km/h (0 Bft)
19.05.2015 23:10 8,8 C 8,7 C 90 % 1011,9 hPa 0,0 mm 0,0 km/h (0 Bft) SW 225 7,3 C 0,0 km/h (0 Bft)
19.05.2015 23:15 8,8 C 8,8 C 87 % 1012,0 hPa 0,0 mm 0,0 km/h (0 Bft) W 270 6,8 C 3,4 km/h (1 Bft)
19.05.2015 23:20 8,7 C 8,7 C 87 % 1012,0 hPa 0,7 mm 2,1 km/h (1 Bft) NW 315 6,7 C 19,7 km/h (3 Bft)
19.05.2015 23:25 8,6 C 8,6 C 87 % 1012,0 hPa 0,0 mm 3,1 km/h (1 Bft) W-NW 292 6,6 C 0,0 km/h (0 Bft)
19.05.2015 23:30 8,6 C 8,5 C 90 % 1012,0 hPa 0,0 mm 1,8 km/h (1 Bft) W-NW 292 7,1 C 0,0 km/h (0 Bft)
19.05.2015 23:35 8,5 C 8,4 C 90 % 1011,8 hPa 0,0 mm 0,5 km/h (0 Bft) W 270 7,0 C 0,0 km/h (0 Bft)
19.05.2015 23:40 8,4 C 8,4 C 87 % 1011,8 hPa 0,7 mm 0,3 km/h (0 Bft) SW 225 6,4 C 2,8 km/h (1 Bft)
19.05.2015 23:45 8,4 C 8,3 C 90 % 1011,8 hPa 0,0 mm 0,5 km/h (0 Bft) S 180 6,9 C 0,0 km/h (0 Bft)
19.05.2015 23:50 8,3 C 8,2 C 89 % 1011,8 hPa 0,0 mm 0,5 km/h (0 Bft) S-SW 202 6,6 C 2,8 km/h (1 Bft)
19.05.2015 23:55 8,3 C 8,1 C 89 % 1011,9 hPa 0,0 mm 0,5 km/h (0 Bft) SW 225 6,6 C 0,0 km/h (0 Bft)
_ Min-Zeit 23:55 23:55 13:30 01:50 - 23:15 - - 23:40 23:55
Minimum _ 8,3 C 8,1 C 71 % 1008,6 hPa - 0,0 km/h (0 Bft) - - 6,4 C 0,0 km/h (0 Bft)
_ Max-Zeit 11:50 11:55 23:45 23:30 02:20 04:10 - - 11:50 04:15
Maximum _ 15,3 C 18,9 C 90 % 1012,0 hPa 1,4 mm 8,8 km/h
W-SW (2 Bft)
- - 11,3 C 25,9 km/h
S (4 Bft)
Durchschnitt _ 11,3 C 11,5 C 83 % 1010,4 hPa #19,9 mm 1,7 km/h (1 Bft) W-SW - 8,5 C 2,9 km/h (1 Bft)